Time,TemperatureF,DewpointF,PressureIn,WindDirection,WindDirectionDegrees,WindSpeedMPH,WindSpeedGustMPH,Humidity,HourlyPrecipIn,Conditions,Clouds,dailyrainin,SoftwareType,DateUTC
2013-04-10 00:11:00,72.7,62.3,29.64,SSW,202,10.9,-999.0,70,-99.99,,,0.00,Acu-Link.com,2013-04-10 04:11:00,
2013-04-10 00:26:00,72.5,62.5,29.65,SSW,202,13.0,-999.0,71,-99.99,,,0.00,Acu-Link.com,2013-04-10 04:26:00,
2013-04-10 00:57:00,71.8,62.7,29.65,SSW,202,14.5,-999.0,73,-99.99,,,0.00,Acu-Link.com,2013-04-10 04:57:00,
2013-04-10 01:12:00,71.6,62.9,29.66,South,180,13.0,-999.0,74,-99.99,,,0.00,Acu-Link.com,2013-04-10 05:12:00,
2013-04-10 01:27:00,71.2,62.9,29.65,SSW,202,13.0,-999.0,75,-99.99,,,0.00,Acu-Link.com,2013-04-10 05:27:00,
2013-04-10 01:42:00,71.1,63.1,29.65,SSW,202,11.9,-999.0,76,-99.99,,,0.00,Acu-Link.com,2013-04-10 05:42:00,
2013-04-10 01:57:00,70.9,62.9,29.65,SSW,202,11.4,-999.0,76,-99.99,,,0.00,Acu-Link.com,2013-04-10 05:57:00,
2013-04-10 02:12:00,70.5,62.9,29.65,SSW,202,9.4,-999.0,77,-99.99,,,0.00,Acu-Link.com,2013-04-10 06:12:00,
2013-04-10 02:27:00,70.3,63.1,29.64,SSW,202,10.9,-999.0,78,-99.99,,,0.00,Acu-Link.com,2013-04-10 06:27:00,
2013-04-10 02:42:00,70.2,63.0,29.63,SSW,202,6.8,-999.0,78,-99.99,,,0.00,Acu-Link.com,2013-04-10 06:42:00,
2013-04-10 02:57:00,69.6,62.8,29.62,SSE,157,8.3,-999.0,79,-99.99,,,0.00,Acu-Link.com,2013-04-10 06:57:00,
2013-04-10 03:12:00,69.4,62.6,29.62,SSW,202,7.3,-999.0,79,-99.99,,,0.00,Acu-Link.com,2013-04-10 07:12:00,
2013-04-10 03:27:00,69.3,62.9,29.62,SSW,202,8.3,-999.0,80,-99.99,,,0.00,Acu-Link.com,2013-04-10 07:27:00,
2013-04-10 03:42:00,69.1,62.7,29.62,South,180,6.3,-999.0,80,-99.99,,,0.00,Acu-Link.com,2013-04-10 07:42:00,
2013-04-10 03:57:00,68.7,62.3,29.63,SSW,202,7.3,-999.0,80,-99.99,,,0.00,Acu-Link.com,2013-04-10 07:57:00,
2013-04-10 04:13:00,68.4,62.3,29.63,SW,225,4.7,-999.0,81,-99.99,,,0.00,Acu-Link.com,2013-04-10 08:13:00,
2013-04-10 04:28:00,68.4,62.3,29.62,SE,135,9.4,-999.0,81,-99.99,,,0.00,Acu-Link.com,2013-04-10 08:28:00,
2013-04-10 04:43:00,68.0,61.9,29.62,SW,225,9.4,-999.0,81,-99.99,,,0.00,Acu-Link.com,2013-04-10 08:43:00,
2013-04-10 04:58:00,67.6,61.9,29.61,South,180,7.8,-999.0,82,-99.99,,,0.00,Acu-Link.com,2013-04-10 08:58:00,
2013-04-10 05:13:00,67.8,62.1,29.62,South,180,7.8,-999.0,82,-99.99,,,0.00,Acu-Link.com,2013-04-10 09:13:00,
2013-04-10 05:28:00,67.8,62.1,29.61,SSE,157,6.8,-999.0,82,-99.99,,,0.00,Acu-Link.com,2013-04-10 09:28:00,
2013-04-10 05:43:00,67.8,62.1,29.60,SE,135,8.9,-999.0,82,-99.99,,,0.00,Acu-Link.com,2013-04-10 09:43:00,
2013-04-10 05:58:00,67.5,61.8,29.60,South,180,7.8,-999.0,82,-99.99,,,0.00,Acu-Link.com,2013-04-10 09:58:00,
2013-04-10 06:13:00,66.9,61.6,29.59,SSE,157,6.8,-999.0,83,-99.99,,,0.00,Acu-Link.com,2013-04-10 10:13:00,
2013-04-10 06:29:00,66.2,61.2,29.59,SSW,202,8.9,-999.0,84,-99.99,,,0.00,Acu-Link.com,2013-04-10 10:29:00,
2013-04-10 06:44:00,66.2,61.2,29.60,South,180,6.3,-999.0,84,-99.99,,,0.00,Acu-Link.com,2013-04-10 10:44:00,
2013-04-10 06:59:00,66.0,61.4,29.59,South,180,6.8,-999.0,85,-99.99,,,0.00,Acu-Link.com,2013-04-10 10:59:00,
2013-04-10 07:14:00,65.8,61.5,29.60,South,180,7.8,-999.0,86,-99.99,,,0.00,Acu-Link.com,2013-04-10 11:14:00,
2013-04-10 07:29:00,65.5,61.2,29.60,South,180,8.3,-999.0,86,-99.99,,,0.00,Acu-Link.com,2013-04-10 11:29:00,
2013-04-10 07:44:00,66.0,61.7,29.60,SSW,202,8.3,-999.0,86,-99.99,,,0.00,Acu-Link.com,2013-04-10 11:44:00,
2013-04-10 08:00:00,66.6,62.3,29.60,South,180,9.4,-999.0,86,-99.99,,,0.00,Acu-Link.com,2013-04-10 12:00:00,
2013-04-10 08:15:00,66.7,62.4,29.61,South,180,9.9,-999.0,86,-99.99,,,0.00,Acu-Link.com,2013-04-10 12:15:00,
2013-04-10 08:30:00,67.1,62.4,29.60,South,180,10.4,-999.0,85,-99.99,,,0.00,Acu-Link.com,2013-04-10 12:30:00,
2013-04-10 08:45:00,67.6,62.9,29.60,SSW,202,7.8,-999.0,85,-99.99,,,0.00,Acu-Link.com,2013-04-10 12:45:00,
2013-04-10 09:00:00,68.7,63.7,29.61,SSW,202,10.4,-999.0,84,-99.99,,,0.00,Acu-Link.com,2013-04-10 13:00:00,
2013-04-10 09:15:00,69.4,64.0,29.61,SSW,202,9.4,-999.0,83,-99.99,,,0.00,Acu-Link.com,2013-04-10 13:15:00,
2013-04-10 09:31:00,70.2,64.8,29.61,SSW,202,13.5,-999.0,83,-99.99,,,0.00,Acu-Link.com,2013-04-10 13:31:00,
2013-04-10 10:01:00,72.0,65.8,29.60,SSW,202,20.7,-999.0,81,-99.99,,,0.01,Acu-Link.com,2013-04-10 14:01:00,
2013-04-10 10:16:00,72.7,66.5,29.60,SSW,202,17.1,-999.0,81,-99.99,,,0.01,Acu-Link.com,2013-04-10 14:16:00,
2013-04-10 10:31:00,73.0,66.5,29.60,South,180,20.7,-999.0,80,-99.99,,,0.01,Acu-Link.com,2013-04-10 14:31:00,
2013-04-10 10:46:00,74.1,67.2,29.60,SSW,202,16.6,-999.0,79,-99.99,,,0.01,Acu-Link.com,2013-04-10 14:46:00,
2013-04-10 11:02:00,75.0,67.3,29.59,SW,225,8.9,-999.0,77,-99.99,,,0.01,Acu-Link.com,2013-04-10 15:02:00,
2013-04-10 11:17:00,75.9,67.8,29.59,SW,225,16.1,-999.0,76,-99.99,,,0.01,Acu-Link.com,2013-04-10 15:17:00,
2013-04-10 11:32:00,76.6,68.5,29.59,SSW,202,17.6,-999.0,76,-99.99,,,0.01,Acu-Link.com,2013-04-10 15:32:00,
2013-04-10 11:47:00,77.5,68.1,29.59,SSW,202,10.9,-999.0,73,-99.99,,,0.01,Acu-Link.com,2013-04-10 15:47:00,
2013-04-10 12:17:00,77.0,67.7,29.60,South,180,17.6,-999.0,73,-99.99,,,0.01,Acu-Link.com,2013-04-10 16:17:00,
2013-04-10 12:48:00,77.2,67.5,29.60,SSW,202,21.2,-999.0,72,-99.99,,,0.01,Acu-Link.com,2013-04-10 16:48:00,
2013-04-10 13:03:00,75.7,67.6,29.59,SSW,202,19.7,-999.0,76,-99.99,,,0.01,Acu-Link.com,2013-04-10 17:03:00,
2013-04-10 13:18:00,76.5,67.6,29.59,WSW,247,10.9,-999.0,74,-99.99,,,0.01,Acu-Link.com,2013-04-10 17:18:00,
2013-04-10 13:33:00,76.5,68.0,29.59,SSW,202,16.6,-999.0,75,-99.99,,,0.01,Acu-Link.com,2013-04-10 17:33:00,
2013-04-10 13:48:00,76.5,67.6,29.59,SSW,202,14.0,-999.0,74,-99.99,,,0.01,Acu-Link.com,2013-04-10 17:48:00,
2013-04-10 14:03:00,76.1,67.2,29.58,SW,225,23.3,-999.0,74,-99.99,,,0.01,Acu-Link.com,2013-04-10 18:03:00,
2013-04-10 14:18:00,76.6,68.1,29.57,SSW,202,16.1,-999.0,75,-99.99,,,0.01,Acu-Link.com,2013-04-10 18:18:00,
2013-04-10 14:33:00,76.8,68.3,29.57,WSW,247,10.4,-999.0,75,-99.99,,,0.01,Acu-Link.com,2013-04-10 18:33:00,
2013-04-10 14:48:00,79.3,69.5,29.56,SSW,202,7.8,-999.0,72,-99.99,,,0.01,Acu-Link.com,2013-04-10 18:48:00,
2013-04-10 15:03:00,79.0,68.4,29.55,SW,225,16.6,-999.0,70,-99.99,,,0.01,Acu-Link.com,2013-04-10 19:03:00,
2013-04-10 15:18:00,78.8,67.7,29.54,South,180,14.0,-999.0,69,-99.99,,,0.01,Acu-Link.com,2013-04-10 19:18:00,
2013-04-10 15:33:00,78.6,68.0,29.53,SSW,202,15.5,-999.0,70,-99.99,,,0.01,Acu-Link.com,2013-04-10 19:33:00,
2013-04-10 15:49:00,78.6,67.6,29.54,SSW,202,20.2,-999.0,69,-99.99,,,0.01,Acu-Link.com,2013-04-10 19:49:00,
2013-04-10 16:04:00,79.2,67.7,29.54,SSW,202,9.4,-999.0,68,-99.99,,,0.01,Acu-Link.com,2013-04-10 20:04:00,
2013-04-10 16:19:00,78.3,66.8,29.53,WSW,247,18.1,-999.0,68,-99.99,,,0.01,Acu-Link.com,2013-04-10 20:19:00,
2013-04-10 16:49:00,74.7,67.7,29.53,WSW,247,13.5,-999.0,79,-99.99,,,0.02,Acu-Link.com,2013-04-10 20:49:00,
2013-04-10 17:04:00,70.0,64.6,29.53,SSW,202,11.4,-999.0,83,-99.99,,,0.07,Acu-Link.com,2013-04-10 21:04:00,
2013-04-10 17:19:00,67.6,61.6,29.54,WSW,247,7.8,-999.0,81,-99.99,,,0.08,Acu-Link.com,2013-04-10 21:19:00,
2013-04-10 17:34:00,65.1,62.1,29.56,NW,315,14.0,-999.0,90,-99.99,,,0.08,Acu-Link.com,2013-04-10 21:34:00,
2013-04-10 17:49:00,64.4,61.4,29.55,North,0,9.9,-999.0,90,-99.99,,,0.08,Acu-Link.com,2013-04-10 21:49:00,
2013-04-10 18:04:00,64.0,60.7,29.55,NW,315,7.3,-999.0,89,-99.99,,,0.08,Acu-Link.com,2013-04-10 22:04:00,
2013-04-10 18:20:00,63.5,60.5,29.53,NNW,337,7.8,-999.0,90,-99.99,,,0.08,Acu-Link.com,2013-04-10 22:20:00,
2013-04-10 18:35:00,62.4,61.2,29.53,NW,315,7.3,-999.0,96,-99.99,,,0.15,Acu-Link.com,2013-04-10 22:35:00,
2013-04-10 18:50:00,62.2,61.0,29.53,East,90,2.7,-999.0,96,-99.99,,,0.58,Acu-Link.com,2013-04-10 22:50:00,
2013-04-10 19:05:00,62.2,61.3,29.53,ESE,112,1.7,-999.0,97,-99.99,,,0.58,Acu-Link.com,2013-04-10 23:05:00,
2013-04-10 19:20:00,62.4,61.5,29.52,ESE,112,3.2,-999.0,97,-99.99,,,0.58,Acu-Link.com,2013-04-10 23:20:00,
2013-04-10 19:36:00,62.4,61.8,29.52,NNW,337,4.7,-999.0,98,-99.99,,,0.58,Acu-Link.com,2013-04-10 23:36:00,
2013-04-10 20:06:00,61.7,60.5,29.56,WNW,292,10.9,-999.0,96,-99.99,,,0.60,Acu-Link.com,2013-04-11 00:06:00,
2013-04-10 20:21:00,61.2,59.8,29.54,NNE,22,9.4,-999.0,95,-99.99,,,0.60,Acu-Link.com,2013-04-11 00:21:00,
2013-04-10 20:37:00,57.0,55.9,29.56,NNE,22,16.1,-999.0,96,-99.99,,,0.60,Acu-Link.com,2013-04-11 00:37:00,
2013-04-10 20:52:00,55.0,53.6,29.57,NNE,22,14.5,-999.0,95,-99.99,,,0.62,Acu-Link.com,2013-04-11 00:52:00,
2013-04-10 21:07:00,54.0,53.2,29.55,NNE,22,10.4,-999.0,97,-99.99,,,0.70,Acu-Link.com,2013-04-11 01:07:00,
2013-04-10 21:37:00,54.1,53.8,29.52,East,90,6.3,-999.0,99,-99.99,,,1.01,Acu-Link.com,2013-04-11 01:37:00,
2013-04-10 21:53:00,54.7,54.4,29.53,NNE,22,8.3,-999.0,99,-99.99,,,1.01,Acu-Link.com,2013-04-11 01:53:00,
2013-04-10 22:08:00,54.7,54.4,29.54,NNE,22,4.2,-999.0,99,-99.99,,,1.01,Acu-Link.com,2013-04-11 02:08:00,
2013-04-10 22:23:00,54.9,54.6,29.54,ESE,112,9.9,-999.0,99,-99.99,,,1.01,Acu-Link.com,2013-04-11 02:23:00,
2013-04-10 22:39:00,55.0,54.7,29.52,ENE,67,7.8,-999.0,99,-99.99,,,1.01,Acu-Link.com,2013-04-11 02:39:00,
2013-04-10 23:01:00,55.0,54.7,29.54,East,90,4.2,-999.0,99,-99.99,,,1.01,Acu-Link.com,2013-04-11 03:01:00,
2013-04-10 23:16:00,55.0,54.7,29.52,East,90,7.8,-999.0,99,-99.99,,,1.01,Acu-Link.com,2013-04-11 03:16:00,
2013-04-10 23:32:00,55.6,55.3,29.51,SSE,157,8.9,-999.0,99,-99.99,,,1.01,Acu-Link.com,2013-04-11 03:32:00,
2013-04-10 23:47:00,55.8,55.5,29.51,East,90,5.8,-999.0,99,-99.99,,,1.01,Acu-Link.com,2013-04-11 03:47:00,